User: anonymous   Login
Location: Castiglione Fibocchi
(43.5333°N, 11.7667°E)
Time: 01:06:35
(UTC+00:00)
Language:

deb Chang Zheng 4 - Orbit

View from above orbital plane
View from above orbital plane
View from above satellite
View from above satellite

Ground track
Ground track

The orbit data is extracted from the following two-line orbital elements,

1 20847U 90081K   20293.43939883  .00002097  00000-0  25362-3 0  9991
2 20847  98.5607 272.8377 0016664 111.3519 248.9474 14.84837280586639
Epoch (UTC): 19 October 2020 10:32:44
Eccentricity: 0.0016664
inclination: 98.5607°
perigee height: 602 km
apogee height: 626 km
right ascension of ascending node: 272.8377°
argument of perigee: 111.3519°
revolutions per day: 14.84837280
mean anomaly at epoch: 248.9474°
orbit number at epoch: 58663

The dashed part of the orbit path shows where the satellite is in the earth's shadow,  

DLR